Latest Weather Observations for Keith West

IDS60801

Issued at 5:35 pm CST Wednesday 1 October 2014 (issued every 30 minutes, with the page automatically refreshed every 10 minutes)

About weather observations | Map of weather stations | Latest weather observations for SA | Other Formats
Station Details ID: 025557 Name: MUNKORA Lat: -36.11 Lon: 140.33 Height: 27.0 m
Data from the previous 72 hours. | See also: Recent months for locations in South Australia
Date/Time
CST
Temp
°C
App
Temp
°C
Dew
Point
Rel
Hum
%
Delta-T
°C
Wind Press
QNH
hPa
Press
MSL
hPa
Rain
since 9 am
mm
Dir
 
Spd
km/h
Gust
km/h
Spd
kts
Gust
kts
01/05:30pm 14.6 9.7 5.1 53 4.4 SW 20 26 11 14 1026.8 1026.8 0.2
01/05:00pm 15.0 10.2 5.5 53 4.5 SW 20 28 11 15 1026.7 1026.7 0.2
01/04:30pm 15.6 11.2 4.9 49 5.0 SW 17 22 9 12 1026.1 1026.1 0.2
01/04:00pm 15.3 10.3 4.4 48 5.1 SSW 20 28 11 15 1026.3 1026.3 0.2
01/03:30pm 17.2 12.2 4.5 43 6.0 SSW 20 32 11 17 1026.2 1026.2 0.2
01/03:00pm 17.6 12.4 3.5 39 6.5 SW 20 28 11 15 1026.2 1026.2 0.2
01/02:30pm 16.5 11.4 3.2 41 6.1 SW 19 30 10 16 1026.3 1026.3 0.2
01/02:00pm 18.6 13.4 3.6 37 7.0 S 20 30 11 16 1026.4 1026.4 0.2
01/01:30pm 17.6 12.6 3.5 39 6.5 SSW 19 24 10 13 1026.4 1026.4 0.2
01/01:00pm 16.7 12.0 3.1 40 6.2 SSW 17 32 9 17 1026.6 1026.6 0.2
01/12:30pm 17.1 12.4 3.4 40 6.3 SW 17 26 9 14 1026.9 1026.9 0.2
01/12:00pm 16.6 11.5 3.0 40 6.2 SSW 19 26 10 14 1027.1 1027.1 0.2
01/11:30am 16.6 12.0 3.7 42 5.9 SW 17 22 9 12 1027.2 1027.2 0.2
01/11:00am 15.8 11.7 4.5 47 5.3 SSW 15 24 8 13 1027.5 1027.5 0.2
01/10:30am 14.9 9.9 3.7 47 5.1 SW 19 22 10 12 1027.5 1027.5 0.2
01/10:00am 14.7 11.0 4.4 50 4.8 S 13 19 7 10 1027.6 1027.6 0.2
01/09:30am 14.2 9.7 4.2 51 4.6 S 17 24 9 13 1027.6 1027.6 0.2
01/09:00am 13.3 9.9 4.2 54 4.1 SSW 11 22 6 12 1027.2 1027.3 1.4
01/08:30am 12.9 10.1 5.3 60 3.5 SSW 9 22 5 12 1027.0 1027.1 1.4
01/08:00am 11.4 9.7 5.9 69 2.5 SW 4 6 2 3 1026.4 1026.5 1.4
01/07:30am 9.9 8.4 6.6 80 1.5 WNW 4 6 2 3 1026.0 1026.1 1.4
01/07:00am 7.7 6.4 6.2 90 0.7 WNW 2 4 1 2 1025.7 1025.8 1.4
01/06:30am 4.7 2.1 3.4 91 0.5 W 6 6 3 3 1025.4 1025.5 1.4
01/06:00am 4.7 2.1 3.4 91 0.5 W 6 7 3 4 1024.9 1025.0 1.4
01/05:30am 5.5 2.8 3.8 89 0.7 W 7 9 4 5 1024.3 1024.4 1.4
01/05:00am 6.4 3.9 4.7 89 0.7 W 7 9 4 5 1023.7 1023.7 1.4
01/04:30am 6.8 4.4 4.5 85 1.0 WSW 6 7 3 4 1023.4 1023.4 1.4
01/04:00am 7.2 4.7 4.9 85 1.0 WSW 7 9 4 5 1023.0 1023.0 1.4
01/03:30am 6.0 3.5 4.6 91 0.6 W 7 9 4 5 1022.7 1022.7 1.4
01/03:00am 5.7 3.0 3.5 86 0.9 WSW 7 9 4 5 1022.4 1022.4 1.2
01/02:30am 3.9 1.2 2.6 91 0.5 WNW 6 7 3 4 1022.2 1022.2 1.2
01/02:00am 4.7 1.9 3.4 91 0.5 NW 7 9 4 5 1022.0 1022.0 1.2
01/01:30am 5.1 2.4 3.9 92 0.5 NW 7 7 4 4 1021.9 1021.9 1.2
01/01:00am 5.6 4.0 4.6 93 0.4 SSW 2 6 1 3 1021.7 1021.7 1.2
01/12:30am 2.8 -0.2 1.9 94 0.3 WNW 7 7 4 4 1021.7 1021.7 1.2
01/12:00am 2.1 -1.1 0.9 92 0.4 W 7 7 4 4 1021.4 1021.4 1.2
 
Date/Time
CST
Temp
°C
App
Temp
°C
Dew
Point
Rel
Hum
%
Delta-T
°C
Wind Press
QNH
hPa
Press
MSL
hPa
Rain
since 9 am
mm
Dir
 
Spd
km/h
Gust
km/h
Spd
kts
Gust
kts
30/11:30pm 3.2 -0.2 1.9 91 0.5 WSW 9 9 5 5 1021.1 1021.1 1.2
30/11:00pm 4.3 1.3 2.3 87 0.8 WSW 7 7 4 4 1020.9 1020.9 1.2
30/10:30pm 6.2 3.1 3.4 82 1.2 WSW 9 11 5 6 1020.6 1020.6 1.2
30/10:00pm 5.3 2.3 4.1 92 0.5 WSW 9 11 5 6 1020.5 1020.5 1.2
30/09:30pm 5.6 2.7 4.4 92 0.5 WNW 9 11 5 6 1020.0 1020.0 1.2
30/09:00pm 6.7 4.3 5.2 90 0.7 WNW 7 9 4 5 1019.6 1019.6 1.2
30/08:30pm 8.6 6.7 6.6 87 0.9 W 6 7 3 4 1019.3 1019.3 1.2
30/08:00pm 9.8 7.8 7.2 84 1.2 SW 7 11 4 6 1018.9 1018.9 1.2
30/07:30pm 10.0 6.9 7.4 84 1.2 SW 13 19 7 10 1018.5 1018.5 1.2
30/07:00pm 10.7 5.4 6.6 76 1.9 SSW 24 35 13 19 1017.8 1017.8 1.2
30/06:30pm 11.3 6.6 5.2 66 2.8 W 19 28 10 15 1016.9 1016.9 1.2
30/06:00pm 12.7 5.5 5.1 60 3.5 WSW 32 43 17 23 1016.5 1016.5 1.2
30/05:30pm 13.3 6.8 4.5 55 4.0 WSW 28 41 15 22 1016.1 1016.1 1.2
30/05:00pm 14.4 6.0 3.8 49 4.8 WSW 37 50 20 27 1015.4 1015.4 1.2
30/04:30pm 15.0 6.8 5.0 51 4.7 WSW 37 54 20 29 1014.9 1014.9 1.2
30/04:21pm 15.0 7.2 5.0 51 4.7 WSW 35 54 19 29 1014.7 1014.7 1.2
30/04:00pm 15.9 7.9 5.5 50 5.0 WSW 37 52 20 28 1014.3 1014.3 1.2
30/03:57pm 16.0 7.7 5.9 51 4.9 WSW 39 59 21 32 1014.3 1014.3 1.2
30/03:30pm 15.6 6.1 4.9 49 5.0 WSW 44 63 24 34 1013.8 1013.8 1.2
30/03:02pm 15.8 6.5 5.1 49 5.1 WSW 43 67 23 36 1013.2 1013.2 1.2
30/03:00pm 15.7 6.9 5.6 51 4.8 WSW 41 52 22 28 1013.4 1013.4 1.2
30/02:30pm 15.2 6.8 7.3 59 3.9 W 41 59 22 32 1012.9 1012.9 1.2
30/02:00pm 14.8 6.1 8.5 66 3.2 WSW 44 65 24 35 1012.7 1012.7 1.2
30/01:30pm 14.4 6.6 11.2 81 1.7 WSW 43 69 23 37 1012.6 1012.6 1.2
30/01:00pm 13.7 4.0 10.3 80 1.8 WSW 52 74 28 40 1012.0 1012.0 1.2
30/12:55pm 14.1 3.4 9.5 74 2.4 WSW 56 74 30 40 1011.9 1011.9 1.2
30/12:53pm 16.3 6.0 11.2 72 2.7 W 56 69 30 37 1011.7 1011.7 1.2
30/12:34pm 15.5 9.7 12.6 83 1.6 W 35 54 19 29 1011.5 1011.5 1.2
30/12:30pm 14.7 9.5 12.9 89 1.0 W 32 43 17 23 1011.6 1011.6 1.2
30/12:12pm 13.8 4.0 10.0 78 2.0 W 52 82 28 44 1011.3 1011.3 0.4
30/12:00pm 19.8 11.3 9.1 50 5.7 WNW 44 67 24 36 1010.3 1010.3 0.0
30/11:39am 20.6 10.9 8.9 47 6.2 WNW 50 69 27 37 1010.2 1010.2 0.0
30/11:30am 20.3 10.9 8.9 48 6.0 WNW 48 65 26 35 1010.2 1010.2 0.0
30/11:24am 20.1 11.5 8.1 46 6.2 WNW 43 65 23 35 1010.1 1010.1 0.0
30/11:00am 20.2 11.6 8.8 48 6.0 WNW 44 61 24 33 1010.2 1010.2 0.0
30/10:30am 20.8 12.4 9.1 47 6.2 WNW 43 63 23 34 1010.5 1010.5 0.0
30/10:29am 20.3 11.7 8.3 46 6.3 WNW 43 63 23 34 1010.5 1010.5 0.0
30/10:00am 19.9 11.9 8.9 49 5.8 WNW 41 54 22 29 1010.6 1010.6 0.0
30/09:30am 19.8 11.7 8.5 48 5.9 WNW 41 61 22 33 1010.6 1010.6 0.0
30/09:03am 19.4 12.7 8.1 48 5.8 WNW 33 56 18 30 1010.6 1010.6 0.0
30/09:00am 19.4 12.9 8.1 48 5.8 NW 32 43 17 23 1010.5 1010.5 0.6
30/08:47am 18.9 11.3 7.7 48 5.7 NW 37 56 20 30 1010.4 1010.4 0.6
30/08:30am 18.6 12.4 8.0 50 5.4 NW 30 43 16 23 1010.7 1010.7 0.6
30/08:00am 16.2 11.1 9.2 63 3.6 NW 26 35 14 19 1011.0 1011.0 0.6
30/07:30am 14.2 10.3 9.4 73 2.5 NNW 20 28 11 15 1010.3 1010.3 0.6
30/07:00am 12.3 8.6 9.3 82 1.5 N 19 26 10 14 1010.3 1010.3 0.4
30/06:30am 10.7 7.2 8.6 87 1.0 N 17 24 9 13 1010.2 1010.2 0.4
30/06:00am 10.3 7.1 8.6 89 0.8 N 15 20 8 11 1010.2 1010.2 0.4
30/05:30am 9.8 7.4 8.6 92 0.6 N 11 15 6 8 1010.2 1010.2 0.4
30/05:00am 10.4 7.4 9.2 92 0.6 N 15 20 8 11 1010.0 1010.0 0.4
30/04:30am 10.6 8.0 9.4 92 0.6 N 13 19 7 10 1010.4 1010.4 0.4
30/04:00am 10.4 7.8 9.3 93 0.5 N 13 17 7 9 1010.5 1010.5 0.4
30/03:30am 9.4 6.9 8.3 93 0.5 N 11 13 6 7 1010.4 1010.4 0.4
30/03:00am 9.4 6.6 8.5 94 0.4 N 13 15 7 8 1010.6 1010.6 0.4
30/02:30am 8.6 5.9 7.5 93 0.5 N 11 13 6 7 1011.0 1011.0 0.4
30/02:00am 8.9 6.7 7.7 92 0.6 N 9 11 5 6 1011.5 1011.5 0.4
30/01:30am 9.5 7.0 8.3 92 0.6 NNW 11 13 6 7 1012.1 1012.1 0.4
30/01:00am 9.8 7.3 8.4 91 0.7 NNW 11 13 6 7 1012.5 1012.5 0.4
30/12:30am 9.7 6.8 8.3 91 0.7 NW 13 17 7 9 1012.9 1012.9 0.4
30/12:00am 9.3 6.4 8.1 92 0.6 NW 13 15 7 8 1013.1 1013.1 0.4
 
Date/Time
CST
Temp
°C
App
Temp
°C
Dew
Point
Rel
Hum
%
Delta-T
°C
Wind Press
QNH
hPa
Press
MSL
hPa
Rain
since 9 am
mm
Dir
 
Spd
km/h
Gust
km/h
Spd
kts
Gust
kts
29/11:30pm 9.3 6.8 8.1 92 0.6 NW 11 13 6 7 1013.4 1013.4 0.4
29/11:00pm 9.1 6.2 8.0 93 0.5 NW 13 13 7 7 1013.6 1013.6 0.4
29/10:30pm 8.4 5.6 7.0 91 0.7 NW 11 13 6 7 1013.4 1013.4 0.4
29/10:00pm 8.4 6.0 7.2 92 0.6 NW 9 13 5 7 1013.4 1013.4 0.4
29/09:30pm 7.3 4.6 5.6 89 0.8 N 9 11 5 6 1013.2 1013.2 0.4
29/09:00pm 8.0 5.8 6.0 87 0.9 NNW 7 7 4 4 1013.2 1013.2 0.4
29/08:30pm 8.6 6.6 6.2 85 1.1 NNW 6 7 3 4 1013.2 1013.2 0.4
29/08:00pm 9.7 7.9 7.0 83 1.3 NW 6 6 3 3 1013.1 1013.1 0.4
29/07:30pm 11.7 10.2 8.4 80 1.6 WNW 6 6 3 3 1013.1 1013.1 0.4
29/07:00pm 12.9 11.0 9.0 77 2.0 W 9 13 5 7 1012.9 1012.9 0.4
29/06:30pm 14.7 12.0 8.9 68 3.0 W 13 17 7 9 1012.6 1012.6 0.4
29/06:00pm 16.4 13.4 9.3 63 3.7 W 15 20 8 11 1012.4 1012.4 0.4
29/05:30pm 18.3 14.6 9.4 56 4.7 WSW 19 24 10 13 1012.1 1012.1 0.4
29/05:00pm 19.4 15.5 9.3 52 5.3 W 20 28 11 15 1011.7 1011.7 0.4
29/04:30pm 20.4 16.4 9.0 48 6.0 W 20 26 11 14 1011.6 1011.6 0.4
29/04:00pm 21.5 17.8 9.4 46 6.5 W 19 30 10 16 1011.5 1011.5 0.4
29/03:30pm 22.1 18.0 8.6 42 7.2 NW 20 28 11 15 1011.5 1011.5 0.4
29/03:00pm 21.4 17.2 8.3 43 6.9 NW 20 28 11 15 1011.8 1011.8 0.4
29/02:30pm 21.1 16.9 8.4 44 6.7 NW 20 30 11 16 1012.2 1012.2 0.4
29/02:00pm 23.0 19.1 8.7 40 7.6 WNW 19 35 10 19 1012.4 1012.4 0.4
29/01:30pm 21.5 16.5 8.1 42 7.0 WNW 24 35 13 19 1012.8 1012.8 0.4
29/01:00pm 21.5 17.2 7.7 41 7.2 WNW 20 30 11 16 1013.1 1013.1 0.4
29/12:30pm 21.1 16.6 8.4 44 6.7 NW 22 32 12 17 1013.4 1013.4 0.4
29/12:00pm 20.2 16.1 8.8 48 6.0 WNW 20 37 11 20 1013.9 1013.9 0.4
29/11:30am 19.9 15.3 8.3 47 6.0 WNW 22 41 12 22 1014.2 1014.2 0.4
29/11:00am 18.3 13.5 8.8 54 4.9 W 24 32 13 17 1014.5 1014.5 0.4
29/10:30am 17.3 15.1 12.2 72 2.8 W 15 24 8 13 1014.8 1014.8 0.4
29/10:00am 16.2 15.2 13.5 84 1.5 W 11 19 6 10 1014.9 1014.9 0.4
29/09:30am 13.8 11.7 12.4 91 0.8 WNW 15 22 8 12 1015.3 1015.3 0.2
29/09:00am 14.7 12.0 11.8 83 1.6 NW 17 20 9 11 1015.1 1015.1 0.2
29/08:30am 15.1 12.5 11.9 81 1.7 NNW 17 20 9 11 1014.7 1014.7 0.2
29/08:00am 14.9 13.1 12.2 84 1.5 NNW 13 17 7 9 1014.6 1014.6 0.2
29/07:30am 12.8 11.1 11.2 90 0.8 NNW 11 15 6 8 1014.5 1014.5 0.2
29/07:00am 11.2 9.6 10.3 94 0.5 N 9 13 5 7 1014.4 1014.4 0.2
29/06:30am 9.5 7.6 8.9 96 0.3 N 9 11 5 6 1014.2 1014.2 0.2
29/06:00am 7.1 4.2 6.4 95 0.3 N 11 13 6 7 1013.9 1013.9 0.0
29/05:30am 7.3 4.8 6.6 95 0.3 NNW 9 11 5 6 1013.7 1013.7 0.0
29/05:00am 7.7 5.3 6.8 94 0.4 NW 9 11 5 6 1013.2 1013.2 0.0
29/04:30am 8.2 5.1 7.4 95 0.4 NW 13 15 7 8 1012.9 1012.9 0.0
29/04:00am 7.9 4.8 7.1 95 0.4 NW 13 15 7 8 1012.6 1012.6 0.0
29/03:30am 7.0 4.0 6.1 94 0.4 NNW 11 13 6 7 1012.5 1012.5 0.0
29/03:00am 7.4 4.8 6.3 93 0.5 NNW 9 13 5 7 1012.7 1012.7 0.0
29/02:30am 8.5 5.8 7.4 93 0.5 NNW 11 13 6 7 1012.6 1012.6 0.0
29/02:00am 8.8 6.2 7.6 92 0.6 NW 11 13 6 7 1012.4 1012.4 0.0
29/01:30am 9.7 6.9 8.5 92 0.6 NW 13 15 7 8 1012.5 1012.5 0.0
29/01:00am 9.5 6.6 8.1 91 0.7 NNW 13 15 7 8 1012.7 1012.7 0.0
29/12:30am 9.6 6.7 8.2 91 0.7 NNW 13 15 7 8 1012.8 1012.8 0.0
29/12:00am 10.2 7.5 9.0 92 0.6 NNW 13 15 7 8 1012.7 1012.7 0.0
 
Date/Time
CST
Temp
°C
App
Temp
°C
Dew
Point
Rel
Hum
%
Delta-T
°C
Wind Press
QNH
hPa
Press
MSL
hPa
Rain
since 9 am
mm
Dir
 
Spd
km/h
Gust
km/h
Spd
kts
Gust
kts
28/11:30pm 9.6 6.8 8.7 94 0.4 NNW 13 17 7 9 1012.6 1012.6 0.0
28/11:00pm 9.6 7.2 8.5 93 0.5 NNW 11 13 6 7 1012.6 1012.6 0.0
28/10:30pm 9.8 7.4 8.6 92 0.6 NNW 11 13 6 7 1012.4 1012.4 0.0
28/10:00pm 9.9 7.1 8.5 91 0.7 NW 13 15 7 8 1012.0 1012.0 0.0
28/09:30pm 10.0 7.1 8.3 89 0.8 NW 13 13 7 7 1012.0 1012.0 0.0
28/09:00pm 10.6 8.1 8.4 86 1.1 WNW 11 13 6 7 1011.9 1011.9 0.0
28/08:30pm 9.4 6.8 7.7 89 0.8 WNW 11 13 6 7 1011.5 1011.5 0.0
28/08:00pm 10.3 8.5 8.1 86 1.1 WNW 7 9 4 5 1010.6 1010.6 0.0
28/07:30pm 12.3 11.1 8.2 76 2.0 W 4 6 2 3 1010.1 1010.1 0.0
28/07:00pm 13.3 12.1 8.0 70 2.6 W 4 7 2 4 1009.6 1009.6 0.0
28/06:30pm 14.6 11.2 7.6 63 3.5 WSW 15 20 8 11 1009.0 1009.0 0.0
28/06:00pm 15.7 11.4 8.0 60 3.9 WSW 20 30 11 16 1008.3 1008.3 0.0

Other Formats:

Comma delimited format used in spreadsheet applications
http://www.bom.gov.au/fwo/IDS60801/IDS60801.95815.axf

JavaScript Object Notation format (JSON) in row-major order
http://www.bom.gov.au/fwo/IDS60801/IDS60801.95815.json